Morchok on US-Thaurissan

World   US   EU   TW   KR   look by realm:                

First

< previous next >
 
Time (GMT)Guildworldregionrealm
Nov 30, 2011 07:31Blood of the Samurai569311
Nov 30, 2011 08:35hybrëëd577812
Nov 30, 2011 08:52Forze581613
Nov 30, 2011 09:16Sandvich589114
Nov 30, 2011 09:16Animus589215
Nov 30, 2011 09:27Iniquity593316
Nov 30, 2011 09:30Skin and Bone594017
Nov 30, 2011 09:40Miracle NB597618
Nov 30, 2011 09:43Fear and Loathing598919
Nov 30, 2011 09:57Tylium6039110
Nov 30, 2011 10:01Schism6055111
Nov 30, 2011 10:08Death Rabbits6076112
Nov 30, 2011 10:09Atrocity6081113
Nov 30, 2011 10:10Last Attempt6084114
Nov 30, 2011 10:19Exhumed6105115
Nov 30, 2011 10:21Death On The Horizon6107116
Nov 30, 2011 10:51Purge6164117
Nov 30, 2011 10:52Xplicit6166118
Nov 30, 2011 10:56Awakén6172119
Nov 30, 2011 11:26Traitorous Dogs6220120
< previous next >
 

Latest

< previous next >
 
Time (GMT)Guildworldregionrealm
Aug 25, 2012 06:29Merciless622001136
Aug 11, 2012 07:28Tahiti616241135
Aug 3, 2012 08:48Free Honor Premades612301134
Jul 26, 2012 10:26Remnant607251133
Jul 22, 2012 14:44JAV Heroes604611132
Jun 15, 2012 09:30President of the G..582651131
Jun 10, 2012 10:20The Crusaders579621130
May 30, 2012 10:48Epicenter572081129
May 23, 2012 10:01Overdòse568131128
~May 7, 2012Final Ownage Elites557781127
May 6, 2012 11:22BeerRightBack557031126
May 3, 2012 09:53Aussie Oi554011125
Apr 27, 2012 11:20Titanium Defenders548701124
~Apr 20, 2012Kalayaan542501123
Apr 20, 2012 10:08Humpty Dumpty541831122
~Apr 16, 2012Tribunal537401121
Mar 28, 2012 10:29Sponsored by Cente..513581120
Mar 22, 2012 07:40Deadly Intent507931119
Mar 21, 2012 13:52Counterbalance506301118
~Mar 17, 2012Opposed503561117
< previous next >
 
login register

 

 


WoWProgress on Facebook